FloripaSat 1
1 44885U 19093G   25220.76927714  .00004341  00000-0  36281-3 0  9990
2 44885  97.8148 308.5124 0009863   4.9224 355.2094 14.99011007305769
RS-44
1 44909U 19096E   25220.59712414  .00000011  00000-0 -40282-5 0  9999
2 44909  82.5223 187.4048 0217879 154.9614 206.2247 12.79742402262366
UPMSat 2
1 46276U 20061E   25220.30262701  .00092357  00000-0  54870-3 0  9999
2 46276  97.2386 297.0382 0001291 192.5267 167.5967 15.77738385274859
SALSAT
1 46495U 20068K   25220.86056297  .00007345  00000-0  31075-3 0  9996
2 46495  97.8645 201.7194 0009675 320.2417  39.8109 15.23485553267702
TUBIN
1 48900U 21059X   25220.77974793  .00047813  00000-0  47642-3 0  9991
2 48900  97.6766  35.1336 0002562  15.8918 344.2421 15.65547234229445
LEDSAT
1 49069U 21073D   25220.80639415  .00117473  00000-0  98684-3 0  9999
2 49069  97.3849 305.2085 0008936 209.7986 150.2768 15.69486408220857
CUTE
1 49263U 21088D   25220.46919501  .00012363  00000-0  22547-3 0  9997
2 49263  97.4486 298.5566 0006934  30.2711 329.8939 15.49568662213697
TeikyoSat 4
1 49396U 21102B   25220.61236334  .00001298  00000-0  88579-4 0  9997
2 49396  97.4072 256.8698 0010866 290.4328  69.5733 15.07856952205597
Z-Sat
1 49399U 21102E   25220.80396550  .00004051  00000-0  22077-3 0  9998
2 49399  97.3765 260.5300 0016288 253.1840 106.7606 15.14839776206091
KOSEN 1
1 49402U 21102H   25220.68447808  .00005799  00000-0  26408-3 0  9994
2 49402  97.3667 264.2924 0014562 223.5542 136.4545 15.20972034206424
HO-113
1 50466U 21131B   25220.82985830  .00000508  00000-0  17231-3 0  9993
2 50466  98.5102 309.8888 0003317 329.5761  30.5235 14.40873729190125
SNUGLITE 2
1 52899U 22065F   25220.32328027  .00000888  00000-0  18118-3 0  9992
2 52899  98.1764   1.7435 0006362 289.0117  71.0395 14.63330757165225
UmKA 1 (RS40S)
1 57172U 23091G   25220.88409642  .00006209  00000-0  32641-3 0  9995
2 57172  97.5542 275.9599 0015666 123.4486 236.8247 15.15931853116612
CubeBel-2 (EU11S)
1 57175U 23091K   25220.88098727  .00009494  00000-0  43946-3 0  9995
2 57175  97.5541 277.4851 0013326 129.0972 231.1450 15.20263068116712
VERONIKA
1 58261U 23174F   25220.55265472  .00893399  41437-3  13532-2 0  9995
2 58261  97.4061 311.3808 0011544 254.6334 105.3672 16.04510993 98163
ENSO
1 58470U 23185J   25220.84751866  .00082555  00000-0  92193-3 0  9991
2 58470  97.3693 298.1598 0006813 210.3716 149.7148 15.62480745 94428
EIRSAT-1
1 58472U 23185L   25220.69794152  .00238592  00000-0  99496-3 0  9998
2 58472  97.3600 301.3241 0007483 226.7885 133.2761 15.85030961 94629
SONATE-2
1 59112U 24043Q   25219.95096404  .00014771  00000-0  40364-3 0  9997
2 59112  97.5199 352.4132 0009616 260.6409  99.3749 15.37450490 79453
MO-122
1 60209U 24125G   25220.53497844  .00015236  00000-0  40820-3 0  9990
2 60209  97.2733  71.5399 0016162 282.1992  77.7443 15.37961780 61166
GRBBeta
1 60237U 24128C   25220.35199584  .00002921  00000-0  22428-3 0  9995
2 60237  61.9891 231.0822 0055680  70.2313 290.4771 15.03048080 59184
Curium One
1 60242U 24128H   25220.54974426  .00005813  00000-0  39951-3 0  9990
2 60242  61.9787 227.7594 0055681  66.5768 294.1165 15.05827967 59263
ROBUSTA-3A
1 60243U 24128J   25220.50496181  .00004282  00000-0  30272-3 0  9990
2 60243  61.9859 228.9484 0054836  64.2116 296.4620 15.05327077 59244
CatSat
1 60246U 24125J   25220.30267504  .00012971  00000-0  41670-3 0  9991
2 60246  97.2542  69.8226 0039979 239.8693 119.8584 15.31618035 59125
HYPERVIEW-1G (RS66S)
1 61772U 24199AP  25220.85074282  .00023712  00000-0  64058-3 0  9996
2 61772  97.3448  89.6459 0011878 344.9009  15.1879 15.37675234 86216
AO-123
1 61781U 24199AY  25220.86630897  .00007129  00000-0  25454-3 0  9998
2 61781  97.3467  87.8499 0015096 350.9293   9.1672 15.29057349 86091
ZIMSAT 2
1 61783U 24199BA  25220.86179994  .00048524  00000-0  10336-2 0  9992
2 61783  97.3416  90.7994 0010501 340.3558  19.7284 15.44729038 89449
HADES-R (SO-124)
1 62690U 25009CK  25220.15499408  .00038393  00000-0  12049-2 0  9994
2 62690  97.4072 300.8717 0002880 215.9413 144.1636 15.32925803 31268
HYDRA-T
1 62692U 25009CM  25220.45502893  .00032872  00000-0  10206-2 0  9991
2 62692  97.4072 301.2335 0002897 211.7531 148.3537 15.33303142 31313
JINJUSat 1B
1 63210U 25052A   25220.52125166  .00010023  00000-0  44453-3 0  9994
2 63210  97.4339 113.9068 0006236 107.0144 253.1776 15.21771921 22361
NUSHSAT 1
1 63211U 25052B   25220.50487212  .00010498  00000-0  46061-3 0  9999
2 63211  97.4333 113.9097 0006229 110.6565 249.5339 15.22127410 22360
TEVEL2-4
1 63213U 25052D   25220.66261231  .00010626  00000-0  47103-3 0  9990
2 63213  97.4244 113.8473 0005113 120.6597 239.5143 15.21778714 22389
TEVEL2-5
1 63214U 25052E   25220.66412368  .00010398  00000-0  46140-3 0  9996
2 63214  97.4247 113.8458 0005134 120.7865 239.3877 15.21748925 22381
TEVEL2-6
1 63215U 25052F   25220.60209000  .00010129  00000-0  45008-3 0  9992
2 63215  97.4247 113.7781 0005191 121.5273 238.6471 15.21708475 22372
TEVEL2-1
1 63217U 25052H   25220.68780048  .00009567  00000-0  42823-3 0  9994
2 63217  97.4225 113.7690 0005133 130.9874 229.1806 15.21474857 22388
TEVEL2-3
1 63218U 25052J   25220.68801756  .00009889  00000-0  44246-3 0  9993
2 63218  97.4224 113.7706 0005114 131.3617 228.8059 15.21479779 22389
TEVEL2-2
1 63219U 25052K   25220.68840655  .00009813  00000-0  43922-3 0  9992
2 63219  97.4225 113.7696 0005121 131.2033 228.9645 15.21470843 22383
TEVEL2-9
1 63237U 25052AD  25219.68323978  .00009441  00000-0  43833-3 0  9992
2 63237  97.4290 112.6384 0008793 155.5067 204.6588 15.20198024 22217
TEVEL2-7
1 63238U 25052AE  25220.60973088  .00008939  00000-0  41596-3 0  9995
2 63238  97.4288 113.5429 0008942 152.9932 207.1770 15.20137090 22355
TEVEL2-8
1 63239U 25052AF  25220.67880831  .00009196  00000-0  42815-3 0  9997
2 63239  97.4289 113.6015 0008980 153.0532 207.1171 15.20107775 22362
HYDRA-W
1 63490U 25052BL  25220.66796854  .00026171  00000-0  10166-2 0  9991
2 63490  97.4235 114.2773 0012690 150.6361 209.5593 15.25974811 22414
HADES-ICM (SO-125)
1 63492U 25052BN  25220.63728306  .00023941  00000-0  94748-3 0  9998
2 63492  97.4243 114.1763 0012787 154.6636 205.5232 15.25368390 22403
